OK1FPA-15 Weather Reports


time (UTC)temp
F
wind
direction
speed
knots
gust
knots
rain 1hr
in
rain 24hr
in
rain mn
in
humidity
%
barometer
mb
20260505031740 55 0.0 0.0 0.00 0.00 0.00 77 1009.8
20260505030739 55 0.0 0.0 0.00 0.00 0.00 77 1009.9
20260505025739 56 0.0 0.0 0.00 0.00 0.00 77 1009.9
20260505024739 56 0.0 0.0 0.00 0.00 0.00 76 1010.0
20260505023739 56 0.0 0.0 0.00 0.00 0.00 76 1010.2
20260505022739 56 0.0 0.0 0.00 0.00 0.00 76 1010.2
20260505021739 56 0.0 0.0 0.00 0.00 0.00 76 1010.3
20260505020739 56 0.0 0.0 0.00 0.00 0.00 76 1010.4
20260505015739 56 0.0 0.0 0.00 0.00 0.00 76 1010.4
20260505014739 56 0.0 0.0 0.00 0.00 0.00 75 1010.6
20260505013739 56 0.0 0.0 0.00 0.00 0.00 75 1010.7
20260505012739 56 0.0 0.0 0.00 0.00 0.00 75 1010.8
20260505011739 57 0.0 0.0 0.00 0.00 0.00 74 1010.8
20260505010739 57 0.0 0.0 0.00 0.00 0.00 73 1011.1
20260505005738 58 0.0 0.0 0.00 0.00 0.00 72 1011.2
20260505004739 58 0.0 0.0 0.00 0.00 0.00 71 1011.3
20260505003739 58 0.0 0.0 0.00 0.00 0.00 71 1011.2
20260505002739 58 0.0 0.0 0.00 0.00 0.00 71 1011.3
20260505001740 58 0.0 0.0 0.00 0.00 0.00 70 1011.3
20260505000739 59 0.0 0.0 0.00 0.00 0.00 71 1011.3
20260504235739 58 0.0 0.0 0.00 0.00 0.00 71 1011.3
20260504234742 59 0.0 0.0 0.00 0.00 0.00 70 1011.4
20260504233737 59 0.0 0.0 0.00 0.00 0.00 70 1011.5
20260504232738 59 0.0 0.0 0.00 0.00 0.00 70 1011.4
20260504231737 59 0.0 0.0 0.00 0.00 0.00 70 1011.4
20260504230737 59 0.0 0.0 0.00 0.00 0.00 69 1011.7
20260504225737 59 0.0 0.0 0.00 0.00 0.00 69 1011.7
20260504224738 59 0.0 0.0 0.00 0.00 0.00 69 1011.8
20260504223737 59 0.0 0.0 0.00 0.00 0.00 69 1011.8
20260504222738 59 0.0 0.0 0.00 0.00 0.00 69 1011.8
20260504221737 60 0.0 0.0 0.00 0.00 0.00 68 1011.9
20260504220737 60 0.0 0.0 0.00 0.00 0.00 67 1012.0
20260504215738 60 0.0 0.0 0.00 0.00 0.00 67 1012.0
20260504214737 60 0.0 0.0 0.00 0.00 0.00 67 1012.1
20260504213737 60 0.0 0.0 0.00 0.00 0.00 67 1012.3
20260504212737 60 0.0 0.0 0.00 0.00 0.00 66 1012.4
20260504211739 60 0.0 0.0 0.00 0.00 0.00 67 1012.4
20260504210737 61 0.0 0.0 0.00 0.00 0.00 65 1012.5
20260504205738 61 0.0 0.0 0.00 0.00 0.00 65 1012.5
20260504204737 61 0.0 0.0 0.00 0.00 0.00 65 1012.5
20260504203737 61 0.0 0.0 0.00 0.00 0.00 65 1012.6
20260504202737 61 0.0 0.0 0.00 0.00 0.00 65 1012.5
20260504201737 61 0.0 0.0 0.00 0.00 0.00 64 1012.5
20260504200737 62 0.0 0.0 0.00 0.00 0.00 64 1012.5
20260504195737 62 0.0 0.0 0.00 0.00 0.00 63 1012.4
20260504194737 62 0.0 0.0 0.00 0.00 0.00 62 1012.5
20260504193737 63 0.0 0.0 0.00 0.00 0.00 62 1012.4
20260504192737 63 0.0 0.0 0.00 0.00 0.00 60 1012.3
20260504191737 64 0.0 0.0 0.00 0.00 0.00 59 1012.2
20260504190737 65 0.0 0.0 0.00 0.00 0.00 58 1012.2
20260504185737 66 0.0 0.0 0.00 0.00 0.00 57 1012.1
20260504184737 67 0.0 0.0 0.00 0.00 0.00 54 1012.1
20260504183737 68 0.0 0.0 0.00 0.00 0.00 53 1012.1
20260504182737 68 0.0 0.0 0.00 0.00 0.00 50 1012.0
20260504181737 69 0.0 0.0 0.00 0.00 0.00 48 1011.9
20260504180738 69 0.0 0.0 0.00 0.00 0.00 48 1011.9
20260504175737 70 0.0 0.0 0.00 0.00 0.00 47 1011.7
20260504174737 70 0.0 0.0 0.00 0.00 0.00 47 1011.7
20260504173737 71 0.0 0.0 0.00 0.00 0.00 44 1011.6
20260504172737 71 0.0 0.0 0.00 0.00 0.00 45 1011.6
20260504171738 72 0.0 0.0 0.00 0.00 0.00 43 1011.6
20260504170737 73 0.0 0.0 0.00 0.00 0.00 42 1011.6
20260504150737 76 0.0 0.0 0.00 0.00 0.00 32 1011.6
20260504140737 77 0.0 0.0 0.00 0.00 0.00 32 1012.1
20260504130738 77 0.0 0.0 0.00 0.00 0.00 32 1012.6
20260504081736 69 0.0 0.0 0.00 0.00 0.00 38 1014.6
20260504080736 69 0.0 0.0 0.00 0.00 0.00 39 1014.5
20260504050736 56 0.0 0.0 0.00 0.00 0.00 63 1014.6
20260504045736 55 0.0 0.0 0.00 0.00 0.00 64 1014.5
20260504044736 55 0.0 0.0 0.00 0.00 0.00 65 1014.5
20260504043736 54 0.0 0.0 0.00 0.00 0.00 66 1014.4
20260504042736 53 0.0 0.0 0.00 0.00 0.00 67 1014.1
20260504041736 53 0.0 0.0 0.00 0.00 0.00 67 1014.0
20260504040736 53 0.0 0.0 0.00 0.00 0.00 68 1013.8
20260504035736 53 0.0 0.0 0.00 0.00 0.00 68 1013.6
20260504034736 53 0.0 0.0 0.00 0.00 0.00 67 1013.7
20260504033736 53 0.0 0.0 0.00 0.00 0.00 67 1013.7
20260504032736 53 0.0 0.0 0.00 0.00 0.00 67 1013.9